Hawarden, United Kingdom

12:39 PM BST on June 23, 2017 (GMT +0100)
Hawarden

Weather History for EGNR - January, 2013

Change the Weather History Date:

Sunday, January 6, 2013

  Actual Average (EGGP) Record (EGGP)
Temperature  
Mean Temperature 48 °F -  
Max Temperature 54 °F 44 °F 53 °F (1999)
Min Temperature 42 °F 35 °F 26 °F (2003)
Degree Days  
Heating Degree Days 17    
Moisture  
Dew Point 47 °F    
Average Humidity 93    
Maximum Humidity 100    
Minimum Humidity 82    
Precipitation  
Precipitation 0.00 in - - ()
Sea Level Pressure  
Sea Level Pressure 30.41 in    
Wind  
Wind Speed 5 mph ()    
Max Wind Speed 12 mph    
Max Gust Speed -    
Visibility 6.3 miles    
Events      
Averages and records for this station are not official NWS values.
T = Trace of Precipitation, MM = Missing Value Source: Averaged Metar Reports

Daily Weather History Graph

Daily Weather History Graph

Search for Another Location

Airport or City:

Trip Planner

Search our weather history database for the weather conditions in past years. The results will help you decide how hot, cold, wet, or windy it might be!

Date:

Astronomy

Jan. 06, 2013 Rise Set
Actual Time 8:24 AM GMT 4:11 PM GMT
Civil Twilight 7:42 AM GMT 4:53 PM GMT
Nautical Twilight 6:58 AM GMT 5:37 PM GMT
Astronomical Twilight 6:16 AM GMT 6:19 PM GMT
Moon 2:00 AM GMT (1/6) 11:48 AM GMT (1/6)
Length of Visible Light 9h 10m
Length of Day
7h 46m
Waning Crescent, 35% of the Moon is Illuminated
Jan 6
Waning Crescent
Jan 11
New
Jan 18
First Quarter
Jan 27
Full
Feb 3
Last Quarter

Hourly Weather History & Observations

Time (GMT) Temp. Windchill Dew Point Humidity Pressure Visibility Wind Dir Wind Speed Gust Speed Precip Events Conditions
2:50 AM 49 °F - 46 °F 87% 30.48 in 25 mi East 3.5 mph - -   Scattered Clouds
5:50 AM 42 °F - 42 °F 100% 30.48 in 4 mi ENE 2.3 mph - -   Mist
8:20 AM - - - N/A% 30.45 in 6.2 mi SSE 6.9 mph - N/A   Scattered Clouds
8:50 AM 44 °F - 44 °F 100% 30.45 in 4 mi SE 4.6 mph - -   Mist
8:50 AM 44.6 °F 42.2 °F 44.6 °F 100% 30.45 in 5.6 mi SSE 4.6 mph - N/A   Mostly Cloudy
9:20 AM 46.4 °F 42.9 °F 46.4 °F 100% 30.45 in 5.6 mi SSE 6.9 mph - N/A   Scattered Clouds
9:50 AM 46.4 °F 42.9 °F 46.4 °F 100% 30.45 in 5.6 mi SSW 6.9 mph - N/A   Scattered Clouds
10:20 AM 48.2 °F - 48.2 °F 100% 30.45 in 5.6 mi South 5.8 mph - N/A   Scattered Clouds
10:50 AM 50.0 °F - 50.0 °F 100% 30.42 in 6.2 mi West 5.8 mph - N/A   Scattered Clouds
11:20 AM 50.0 °F - 50.0 °F 100% 30.42 in 6.2 mi South 6.9 mph - N/A   Scattered Clouds
11:50 AM 54 °F - 50 °F 82% 30.42 in 22 mi South 9.2 mph - -   Scattered Clouds
11:50 AM 53.6 °F - 50.0 °F 88% 30.42 in 6.2 mi SSW 8.1 mph - N/A   Scattered Clouds
12:20 PM 50.0 °F - 48.2 °F 94% 30.39 in 6.2 mi South 8.1 mph - N/A   Scattered Clouds
1:20 PM 51.8 °F - 50.0 °F 94% 30.39 in 6.2 mi South 9.2 mph - N/A   Scattered Clouds
1:50 PM 51.8 °F - 48.2 °F 88% 30.36 in 6.2 mi South 9.2 mph - N/A   Scattered Clouds
2:20 PM 50.0 °F - 46.4 °F 87% 30.36 in 6.2 mi South 8.1 mph - N/A   Scattered Clouds
2:50 PM 51.8 °F - 48.2 °F 88% 30.36 in 6.2 mi SW 11.5 mph - N/A   Scattered Clouds
3:20 PM 50.0 °F - 46.4 °F 87% 30.36 in 6.2 mi SW 10.4 mph - N/A   Scattered Clouds
3:50 PM 50.0 °F - 46.4 °F 87% 30.36 in 6.2 mi South 8.1 mph - N/A   Mostly Cloudy
5:50 PM 48 °F - 45 °F 84% 30.35 in 14 mi South 6.9 mph - -   Overcast
8:50 PM 45 °F - 44 °F 95% 30.34 in 7 mi SSE 3.5 mph - -   Scattered Clouds
11:50 PM 43 °F - 43 °F 100% 30.32 in 6 mi SSE 3.5 mph - -   Mist